This is the latest recevied weather packets stored in our database for station/object DG2US-10. If no packets are shown the sender has not sent any weather packets the latest 10 day(s).
| Time | Temp. | Humidity | Pressure | Rain* | Wind** | Luminosity | Snow |
|---|---|---|---|---|---|---|---|
| 1777684224 | 10.56° C | 38% | 1025.1 hPa | - | - | - | - |
| 1777683324 | 10.56° C | 37% | 1025.1 hPa | - | - | - | - |
| 1777682424 | 11.11° C | 37% | 1025.2 hPa | - | - | - | - |
| 1777681524 | 11.67° C | 36% | 1025.3 hPa | - | - | - | - |
| 1777680624 | 11.67° C | 36% | 1025.4 hPa | - | - | - | - |
| 1777679724 | 12.22° C | 36% | 1025.4 hPa | - | - | - | - |
| 1777678824 | 12.78° C | 35% | 1025.5 hPa | - | - | - | - |
| 1777677924 | 13.33° C | 35% | 1025.5 hPa | - | - | - | - |
| 1777677024 | 13.33° C | 35% | 1025.6 hPa | - | - | - | - |
| 1777676124 | 13.89° C | 35% | 1025.6 hPa | - | - | - | - |
| 1777675224 | 14.44° C | 34% | 1025.6 hPa | - | - | - | - |
| 1777674325 | 15° C | 33% | 1025.7 hPa | - | - | - | - |
| 1777673423 | 15.56° C | 33% | 1025.7 hPa | - | - | - | - |
| 1777672523 | 16.11° C | 32% | 1025.7 hPa | - | - | - | - |
| 1777671623 | 17.22° C | 31% | 1025.7 hPa | - | - | - | - |
| 1777670723 | 17.78° C | 30% | 1025.6 hPa | - | - | - | - |
| 1777669823 | 18.33° C | 30% | 1025.8 hPa | - | - | - | - |
| 1777668923 | 18.89° C | 30% | 1025.8 hPa | - | - | - | - |
| 1777668023 | 20° C | 29% | 1025.7 hPa | - | - | - | - |
| 1777667123 | 20.56° C | 29% | 1025.7 hPa | - | - | - | - |
| 1777666223 | 21.11° C | 28% | 1025.8 hPa | - | - | - | - |
| 1777665323 | 22.22° C | 28% | 1025.9 hPa | - | - | - | - |
| 1777664423 | 22.78° C | 27% | 1025.9 hPa | - | - | - | - |
| 1777663523 | 23.89° C | 27% | 1025.9 hPa | - | - | - | - |
| 1777662623 | 25° C | 27% | 1025.9 hPa | - | - | - | - |
* Rain since midnight (hover to see other rain measurements)
** Current wind speed in m/s (hover to see current wind gust speed)